Piney Island, NC

10:34 PM EDT on September 23, 2017 (GMT -0400)
Piney Island

Weather History for KNBT - October, 2013

Change the Weather History Date:

Sunday, October 20, 2013

  Actual Average (KMRH) Record (KMRH)
Temperature  
Mean Temperature 66 °F -  
Max Temperature 71 °F 74 °F 85 °F (1979)
Min Temperature 62 °F 52 °F 29 °F (1981)
Cooling Degree Days 2    
Growing Degree Days 16 (Base 50)    
Moisture  
Dew Point 58 °F    
Average Humidity 75    
Maximum Humidity 93    
Minimum Humidity 63    
Precipitation  
Precipitation 0.00 in - - ()
Sea Level Pressure  
Sea Level Pressure 30.02 in    
Wind  
Wind Speed 11 mph (North)    
Max Wind Speed 17 mph    
Max Gust Speed 22 mph    
Visibility 10 miles    
Events Rain    
Averages and records for this station are not official NWS values.
T = Trace of Precipitation, MM = Missing Value Source: NWS Daily Summary

Daily Weather History Graph

Daily Weather History Graph

Search for Another Location

Airport or City:

Trip Planner

Search our weather history database for the weather conditions in past years. The results will help you decide how hot, cold, wet, or windy it might be!

Date:

Astronomy

Oct. 20, 2013 Rise Set
Actual Time 7:16 AM EDT 6:24 PM EDT
Civil Twilight 6:50 AM EDT 6:50 PM EDT
Nautical Twilight 6:21 AM EDT 7:19 PM EDT
Astronomical Twilight 5:51 AM EDT 7:48 PM EDT
Moon 7:35 PM EDT (10/20) 8:47 AM EDT (10/20)
Length of Visible Light 11h 59m
Length of Day
11h 08m
Full, 97% of the Moon is Illuminated
Oct 20
Full
Oct 26
Last Quarter
Nov 3
New
Nov 10
First Quarter
Nov 17
Full

Hourly Weather History & Observations

Time (EDT) Temp. Dew Point Humidity Pressure Visibility Wind Dir Wind Speed Gust Speed Precip Events Conditions
12:56 AM 71.1 °F 69.1 °F 93% 29.90 in 8.0 mi West 6.9 mph - N/A   Overcast
1:56 AM 71.1 °F 66.0 °F 84% 29.91 in 10.0 mi WNW 9.2 mph - N/A   Overcast
2:56 AM 70.0 °F 64.0 °F 81% 29.89 in 10.0 mi NW 10.4 mph - 0.00 in   Overcast
3:56 AM 69.1 °F 64.9 °F 87% 29.89 in 10.0 mi NNW 9.2 mph - N/A   Mostly Cloudy
4:56 AM 68.0 °F 61.0 °F 78% 29.91 in 10.0 mi NNW 13.8 mph - N/A   Overcast
5:56 AM 66.0 °F 59.0 °F 78% 29.93 in 10.0 mi North 13.8 mph - 0.00 in Rain Light Rain
6:56 AM 66.0 °F 57.9 °F 75% 29.96 in 10.0 mi North 15.0 mph - 0.00 in   Overcast
7:56 AM 64.9 °F 57.0 °F 75% 29.99 in 10.0 mi North 17.3 mph - N/A   Overcast
8:56 AM 64.0 °F 55.0 °F 73% 30.02 in 10.0 mi North 16.1 mph - 0.00 in   Overcast
9:56 AM 64.0 °F 55.0 °F 73% 30.04 in 10.0 mi North 16.1 mph - 0.00 in   Clear
10:56 AM 64.9 °F 57.0 °F 75% 30.06 in 10.0 mi North 15.0 mph 19.6 mph N/A   Partly Cloudy
11:20 AM 66.0 °F 57.9 °F 75% 30.04 in 10.0 mi North 13.8 mph 21.9 mph N/A   Mostly Cloudy
11:56 AM 64.9 °F 57.9 °F 78% 30.06 in 10.0 mi NNE 13.8 mph - N/A   Overcast
12:56 PM 66.9 °F 57.9 °F 73% 30.06 in 10.0 mi North 13.8 mph - N/A   Mostly Cloudy
1:56 PM 66.9 °F 55.9 °F 68% 30.05 in 10.0 mi NNE 11.5 mph - N/A   Scattered Clouds
2:56 PM 68.0 °F 55.0 °F 63% 30.04 in 10.0 mi NE 6.9 mph - N/A   Clear
3:56 PM 68.0 °F 55.0 °F 63% 30.04 in 10.0 mi NE 6.9 mph - N/A   Partly Cloudy
4:56 PM 66.9 °F 54.0 °F 63% 30.05 in 10.0 mi NNE 8.1 mph - N/A   Clear
5:56 PM 66.0 °F 55.0 °F 68% 30.05 in 10.0 mi NE 8.1 mph - N/A   Partly Cloudy
6:56 PM 64.0 °F 55.0 °F 73% 30.07 in 10.0 mi NE 9.2 mph - N/A   Clear
7:56 PM 64.0 °F 55.0 °F 73% 30.08 in 10.0 mi NE 10.4 mph - N/A   Clear
8:56 PM 63.0 °F 54.0 °F 72% 30.10 in 10.0 mi ENE 8.1 mph - N/A   Clear
9:56 PM 63.0 °F 55.0 °F 75% 30.12 in 10.0 mi NE 6.9 mph - N/A   Clear
10:56 PM 62.1 °F 54.0 °F 75% 30.12 in 10.0 mi NNE 6.9 mph - N/A   Clear
11:56 PM 62.1 °F 53.1 °F 72% 30.12 in 10.0 mi NNE 6.9 mph - N/A   Clear